User: anonymous   Login
Location: Minneapolis
(45.0000°N, 93.0000°W)
Time: 14:49:35
(UTC-05:00)
Language:

Humanity Star - Orbit

View from above orbital plane
View from above orbital plane
View from above satellite
View from above satellite

Ground track
Ground track

The orbit data is extracted from the following two-line orbital elements,

1 43168U 18010F   18081.42604271  .28808768 -13411-5  35134-2 0  9997
2 43168  82.8880  78.1866 0005783 272.9878  87.6140 16.36378329  9474
Epoch (UTC): 22 March 2018 10:13:30
Eccentricity: 0.0005783
inclination: 82.8880°
perigee height: 171 km
apogee height: 179 km
right ascension of ascending node: 78.1866°
argument of perigee: 272.9878°
revolutions per day: 16.36378329
mean anomaly at epoch: 87.6140°
orbit number at epoch: 947

The dashed part of the orbit path shows where the satellite is in the earth's shadow,  

DLR